| time (UTC) | temp C | wind direction | speed KPH | gust KPH | rain 1hr cm | rain 24hr cm | rain mn cm | humidity % | barometer mb |
| 20260506150047 | 21 | 250 | 3.2 | 14.5 | 0.00 | 0.00 | 0.00 | 63 | 1009.9 |
| 20260506144549 | 21 | 150 | 1.6 | 12.9 | 0.00 | 0.00 | 0.00 | 65 | 1009.7 |
| 20260506143103 | 20 | 211 | 3.2 | 14.5 | 0.00 | 0.00 | 0.00 | 67 | 1009.6 |
| 20260506141553 | 20 | 227 | 3.2 | 14.5 | 0.00 | 0.00 | 0.00 | 70 | 1009.6 |
| 20260506140058 | 19 | 160 | 3.2 | 11.3 | 0.00 | 0.00 | 0.00 | 69 | 1009.8 |
| 20260506134553 | 19 | 240 | 1.6 | 14.5 | 0.00 | 0.03 | 0.00 | 70 | 1010.0 |
| 20260506133055 | 18 | 137 | 3.2 | 11.3 | 0.00 | 0.03 | 0.00 | 71 | 1010.3 |
| 20260506131551 | 18 | 232 | 0.0 | 17.7 | 0.00 | 0.03 | 0.00 | 73 | 1010.1 |
| 20260506130051 | 18 | 98 | 1.6 | 9.7 | 0.00 | 0.03 | 0.00 | 72 | 1010.2 |
| 20260506124549 | 18 | 222 | 3.2 | 11.3 | 0.00 | 0.03 | 0.00 | 74 | 1010.1 |
| 20260506123049 | 17 | 229 | 1.6 | 9.7 | 0.00 | 0.03 | 0.00 | 74 | 1010.4 |
| 20260506121551 | 17 | 292 | 1.6 | 11.3 | 0.00 | 0.03 | 0.00 | 76 | 1010.0 |
| 20260506120057 | 17 | 26 | 3.2 | 9.7 | 0.00 | 0.03 | 0.00 | 75 | 1010.5 |
| 20260506114558 | 17 | 133 | 1.6 | 8.0 | 0.00 | 0.03 | 0.00 | 76 | 1010.4 |
| 20260506113053 | 16 | 0 | 1.6 | 11.3 | 0.00 | 0.03 | 0.00 | 77 | 1010.8 |
| 20260506111548 | 16 | 287 | 1.6 | 4.8 | 0.00 | 0.03 | 0.00 | 78 | 1010.6 |
| 20260506110055 | 16 | 247 | 1.6 | 8.0 | 0.00 | 0.03 | 0.00 | 78 | 1010.7 |
| 20260506104550 | 16 | 182 | 1.6 | 4.8 | 0.00 | 0.03 | 0.00 | 78 | 1010.6 |
| 20260506103049 | 16 | 310 | 1.6 | 8.0 | 0.00 | 0.03 | 0.00 | 77 | 1010.7 |
| 20260506101551 | 16 | 0 | 1.6 | 4.8 | 0.00 | 0.03 | 0.00 | 77 | 1010.6 |
| 20260506100048 | 16 | 254 | 1.6 | 6.4 | 0.00 | 0.03 | 0.00 | 77 | 1010.6 |
| 20260506094604 | 16 | 294 | 0.0 | 8.0 | 0.00 | 0.03 | 0.00 | 76 | 1010.3 |
| 20260506093049 | 16 | 233 | 1.6 | 11.3 | 0.00 | 0.03 | 0.00 | 75 | 1010.6 |
| 20260506091549 | 16 | 69 | 1.6 | 11.3 | 0.00 | 0.03 | 0.00 | 75 | 1010.6 |
| 20260506090047 | 16 | 0 | 0.0 | 8.0 | 0.00 | 0.03 | 0.00 | 74 | 1010.6 |
| 20260506084547 | 16 | 192 | 1.6 | 8.0 | 0.00 | 0.03 | 0.00 | 73 | 1010.6 |
| 20260506083045 | 17 | 163 | 1.6 | 8.0 | 0.00 | 0.03 | 0.00 | 73 | 1010.6 |
| 20260506081547 | 17 | 0 | 1.6 | 8.0 | 0.00 | 0.03 | 0.00 | 72 | 1010.5 |
| 20260506073048 | 17 | 0 | 1.6 | 6.4 | 0.00 | 0.03 | 0.00 | 70 | 1010.2 |
| 20260506071553 | 17 | 0 | 1.6 | 8.0 | 0.00 | 0.03 | 0.00 | 69 | 1010.1 |
| 20260506061552 | 18 | 338 | 1.6 | 6.4 | 0.00 | 0.03 | 0.00 | 65 | 1009.7 |
| 20260506044555 | 18 | 0 | 1.6 | 8.0 | 0.00 | 0.03 | 0.00 | 63 | 1010.2 |
| 20260506043049 | 18 | 260 | 0.0 | 8.0 | 0.00 | 0.03 | 0.00 | 63 | 1010.2 |
| 20260506041550 | 18 | 236 | 1.6 | 8.0 | 0.00 | 0.03 | 0.00 | 62 | 1010.3 |
| 20260506040100 | 18 | 242 | 1.6 | 6.4 | 0.00 | 0.03 | 0.00 | 61 | 1010.3 |
| 20260506034604 | 18 | 0 | 3.2 | 14.5 | 0.00 | 0.03 | 0.03 | 60 | 1010.4 |
| 20260506033050 | 18 | 243 | 3.2 | 9.7 | 0.00 | 0.03 | 0.03 | 59 | 1010.3 |
| 20260506031558 | 18 | 152 | 3.2 | 11.3 | 0.00 | 0.03 | 0.03 | 59 | 1010.3 |
| 20260506030052 | 18 | 204 | 1.6 | 14.5 | 0.00 | 0.03 | 0.03 | 57 | 1010.3 |
| 20260506024556 | 19 | 242 | 3.2 | 19.3 | 0.00 | 0.03 | 0.03 | 56 | 1010.4 |
| 20260506023050 | 19 | 247 | 1.6 | 9.7 | 0.00 | 0.03 | 0.03 | 56 | 1010.3 |
| 20260506021556 | 19 | 200 | 1.6 | 14.5 | 0.00 | 0.03 | 0.03 | 56 | 1010.6 |
| 20260506020100 | 19 | 148 | 0.0 | 11.3 | 0.00 | 0.03 | 0.03 | 57 | 1010.7 |
| 20260506014549 | 19 | 0 | 0.0 | 4.8 | 0.00 | 0.03 | 0.03 | 57 | 1010.4 |
| 20260506013048 | 20 | 0 | 1.6 | 9.7 | 0.00 | 0.03 | 0.03 | 56 | 1010.0 |
| 20260506011551 | 20 | 277 | 1.6 | 6.4 | 0.00 | 0.03 | 0.03 | 56 | 1009.6 |
| 20260506010056 | 20 | 169 | 3.2 | 17.7 | 0.00 | 0.03 | 0.03 | 54 | 1009.4 |
| 20260506004551 | 20 | 0 | 3.2 | 6.4 | 0.00 | 0.03 | 0.03 | 54 | 1009.1 |
| 20260506003049 | 20 | 249 | 3.2 | 16.1 | 0.00 | 0.03 | 0.03 | 52 | 1008.7 |
| 20260506001549 | 21 | 286 | 3.2 | 12.9 | 0.00 | 0.03 | 0.03 | 52 | 1008.3 |
| 20260506000050 | 21 | 5 | 3.2 | 9.7 | 0.00 | 0.03 | 0.03 | 51 | 1008.2 |
| 20260505234557 | 22 | 149 | 4.8 | 14.5 | 0.00 | 0.03 | 0.03 | 49 | 1007.9 |
| 20260505233103 | 22 | 263 | 3.2 | 12.9 | 0.00 | 0.03 | 0.03 | 49 | 1007.7 |
| 20260505231555 | 22 | 157 | 3.2 | 16.1 | 0.00 | 0.03 | 0.03 | 48 | 1007.5 |
| 20260505230054 | 23 | 331 | 4.8 | 14.5 | 0.00 | 0.03 | 0.03 | 47 | 1007.2 |
| 20260505224553 | 23 | 225 | 3.2 | 9.7 | 0.00 | 0.03 | 0.03 | 46 | 1007.1 |
| 20260505223057 | 23 | 85 | 3.2 | 16.1 | 0.00 | 0.03 | 0.03 | 46 | 1006.8 |
| 20260505221552 | 24 | 0 | 4.8 | 16.1 | 0.00 | 0.03 | 0.03 | 45 | 1006.4 |
| 20260505220049 | 25 | 225 | 4.8 | 17.7 | 0.00 | 0.03 | 0.03 | 43 | 1006.4 |
| 20260505214550 | 25 | 173 | 6.4 | 17.7 | 0.00 | 0.03 | 0.03 | 41 | 1006.2 |
| 20260505213049 | 26 | 315 | 3.2 | 14.5 | 0.00 | 0.03 | 0.03 | 40 | 1006.1 |
| 20260505211600 | 26 | 258 | 6.4 | 14.5 | 0.00 | 0.03 | 0.03 | 39 | 1006.0 |
| 20260505210050 | 26 | 212 | 3.2 | 14.5 | 0.00 | 0.03 | 0.03 | 39 | 1005.8 |
| 20260505204549 | 27 | 205 | 8.0 | 19.3 | 0.00 | 0.03 | 0.03 | 40 | 1005.7 |
| 20260505203049 | 27 | 191 | 4.8 | 20.9 | 0.00 | 0.03 | 0.03 | 38 | 1005.8 |
| 20260505201545 | 28 | 281 | 3.2 | 19.3 | 0.00 | 0.03 | 0.03 | 37 | 1005.8 |
| 20260505200049 | 28 | 245 | 4.8 | 14.5 | 0.00 | 0.03 | 0.03 | 36 | 1005.8 |
| 20260505194605 | 28 | 252 | 4.8 | 16.1 | 0.00 | 0.03 | 0.03 | 37 | 1005.9 |
| 20260505193048 | 27 | 167 | 3.2 | 17.7 | 0.00 | 0.03 | 0.03 | 38 | 1006.2 |
| 20260505191544 | 28 | 298 | 4.8 | 14.5 | 0.00 | 0.03 | 0.03 | 37 | 1006.3 |
| 20260505190051 | 28 | 177 | 4.8 | 19.3 | 0.00 | 0.03 | 0.03 | 38 | 1006.5 |
| 20260505184552 | 28 | 184 | 6.4 | 20.9 | 0.00 | 0.03 | 0.03 | 36 | 1006.8 |
| 20260505183056 | 27 | 240 | 4.8 | 19.3 | 0.00 | 0.03 | 0.03 | 38 | 1007.0 |
| 20260505181556 | 27 | 134 | 4.8 | 24.1 | 0.00 | 0.03 | 0.03 | 37 | 1007.3 |
| 20260505180059 | 28 | 152 | 3.2 | 17.7 | 0.00 | 0.03 | 0.03 | 36 | 1007.5 |
| 20260505174602 | 27 | 334 | 3.2 | 11.3 | 0.00 | 0.03 | 0.03 | 38 | 1007.5 |
| 20260505173051 | 27 | 195 | 3.2 | 11.3 | 0.00 | 0.03 | 0.03 | 37 | 1007.8 |
| 20260505171553 | 27 | 204 | 4.8 | 14.5 | 0.00 | 0.03 | 0.03 | 37 | 1008.1 |
| 20260505170054 | 26 | 199 | 3.2 | 14.5 | 0.00 | 0.03 | 0.03 | 41 | 1008.3 |
| 20260505164614 | 26 | 242 | 4.8 | 14.5 | 0.00 | 0.03 | 0.03 | 39 | 1008.6 |
| 20260505163102 | 25 | 297 | 3.2 | 14.5 | 0.00 | 0.03 | 0.03 | 43 | 1008.9 |
| 20260505161550 | 25 | 0 | 3.2 | 11.3 | 0.00 | 0.03 | 0.03 | 43 | 1009.2 |
| 20260505153053 | 22 | 300 | 3.2 | 11.3 | 0.00 | 0.03 | 0.03 | 50 | 1009.9 |
| 20260505151550 | 22 | 136 | 3.2 | 12.9 | 0.00 | 0.03 | 0.03 | 51 | 1009.8 |